User: anonymous   Login
Location: Drummondville
(45.8830°N, 72.4830°W)
Time: 07:41:32
(UTC-05:00)
Language:

Vanguard 1 - Orbit

View from above orbital plane
View from above orbital plane
View from above satellite
View from above satellite

Ground track
Ground track

The orbit data is extracted from the following two-line orbital elements,

1 00005U 58002B   17326.18208135  .00000225  00000-0  30852-3 0  9997
2 00005  34.2448 238.4323 1846656  90.5152 290.6074 10.84766862103454
Epoch (UTC): 22 November 2017 04:22:11
Eccentricity: 0.1846656
inclination: 34.2448°
perigee height: 650 km
apogee height: 3834 km
right ascension of ascending node: 238.4323°
argument of perigee: 90.5152°
revolutions per day: 10.84766862
mean anomaly at epoch: 290.6074°
orbit number at epoch: 10345

The dashed part of the orbit path shows where the satellite is in the earth's shadow,  

DLR